Regional Weather Roundup
Issued by NWS

Home | Current Version | Previous Version | Graphics & Text | Print | Product List | Glossary Off
Versions: 1 2 3 4 5 6 7 8 9 10 11 12 13 14 15 16 17 18 19 20 21 22 23 24 25 26 27 28 29 30 31 32 33 34 35 36 37 38 39 40 41 42 43 44 45 46 47 48 49 50

000
ASUS43 KMKX 211520
RWRWI

WISCONSIN REGIONAL WEATHER ROUNDUP
NATIONAL WEATHER SERVICE MILWAUKEE/SULLIVAN WI
900 AM CST TUE NOV 21 2017

NOTE: "FAIR" INDICATES FEW OR NO CLOUDS BELOW 12,000 FEET WITH NO
SIGNIFICANT WEATHER AND/OR OBSTRUCTIONS TO VISIBILITY.

WIZ001-002-006>008-014>016-023>028-211600-
NORTHWEST WISCONSIN

CITY           SKY/WX    TMP DP  RH WIND       PRES   REMARKS
SUPERIOR ARPT  CLOUDY    24  11  58 NW23      29.91R WCI   8
ASHLAND        CLOUDY    24  12  60 NW22G31   29.81R WCI   9
HAYWARD        FLURRIES  22  10  60 NW12G20   29.82R WCI  10
SIREN          CLOUDY    22  10  60 NW17G25   29.91R WCI   8
CUMBERLAND     CLOUDY    21  10  63 NW15G26   29.86R WCI   8
RICE LAKE      CLOUDY    23  10  58 NW17G26   29.88R WCI   9
CHETEK         CLOUDY    24  11  59 NW9G24    29.86R WCI  14
LADYSMITH      CLOUDY    25  13  60 NW23G30   29.81R WCI  10
EAU CLAIRE     CLOUDY    26  12  55 NW20      29.85R WCI  12
MENOMONIE      CLOUDY    27  12  53 W21G26    29.87R WCI  14
NEW RICHMOND   CLOUDY    23  11  58 NW22G30   29.92R WCI   8
OSCEOLA        CLOUDY    24  12  60 NW15G25   29.97R WCI  11
$$

WIZ003>005-009-010-017-018-211600-
NORTH CENTRAL WISCONSIN

CITY           SKY/WX    TMP DP  RH WIND       PRES   REMARKS
MANITOWISH WTR LGT SNOW  22  16  80 NW15G23   29.69R WCI   8
ARBOR VITAE    FLURRIES  24  15  68 NW18G29   29.68R WCI  11
WOODRUFF       FLURRIES  24  15  68 NW18G29   29.68R WCI  11
RHINELANDER    CLOUDY    26  14  60 NW22G31   29.66R WCI  12
EAGLE RIVER    LGT SNOW  24  14  66 NW22G36   29.66R WCI   9
LAND O LAKES   LGT SNOW  24  17  72 W16G31    29.65R WCI  11
PHILLIPS       LGT SNOW  22  12  65 NW14G21   29.75R VSB 1   WCI   9
TOMAHAWK       CLOUDY    26  13  59 W15G26    29.70R WCI  13
MEDFORD        FLURRIES  25  16  68 NW17G24   29.72R WCI  12
MERRILL        CLOUDY    28  14  55 NW20G26   29.72R WCI  15
$$

WIZ029-030-035-036-043>047-211600-
CENTRAL WISCONSIN

CITY           SKY/WX    TMP DP  RH WIND       PRES   REMARKS
WAUSAU         CLOUDY    29  17  61 NW21G29   29.68R WCI  16
MOSINEE        CLOUDY    28  18  64 NW17G29   29.71R WCI  16
MARSHFIELD     CLOUDY    27  14  58 NW21G33   29.74R WCI  13
STEVENS POINT  CLOUDY    28  15  57 W16G33    29.72R WCI  17
WAUPACA        PTSUNNY   36  19  49 W23G29    29.71R WCI  24
WAUTOMA        CLOUDY    31  18  58 NW18G26   29.75R WCI  19
WISC RAPIDS    CLOUDY    29  16  58 NW17G29   29.76R WCI  17
CAMP DOUGLAS   CLOUDY    30  12  47 NW18G29   29.81R WCI  18
$$

WIZ011>013-019>022-031-037>040-048>050-211600-
NORTHEAST WISCONSIN

CITY           SKY/WX    TMP DP  RH WIND       PRES   REMARKS
ANTIGO         CLOUDY    28  18  66 NW18G30   29.65R WCI  15
SHAWANO        CLOUDY    36  18  48 W12G20    29.67R WCI  27
OCONTO         MOSUNNY   37  17  45 NW10G24   29.63R WCI  29
STURGEON BAY   CLOUDY    36  20  52 NW22G28   29.62R WCI  25
GREEN BAY      CLOUDY    36  25  64 W15       29.65R WCI  27
MANITOWOC      PTSUNNY   38  24  57 NW14      29.67R WCI  30
APPLETON       PTSUNNY   34  16  47 W21G33    29.64R WCI  22
CLINTONVILLE   CLOUDY    36  19  51 NW15G29   29.67R WCI  26
OSHKOSH        CLOUDY    36  21  54 W15G26    29.69R WCI  27
$$

WIZ032>034-041-042-053>061-211600-
SOUTHWEST WISCONSIN

CITY           SKY/WX    TMP DP  RH WIND       PRES   REMARKS
LA CROSSE      CLOUDY    32  16  51 NW25G32   29.85R WCI  19
SPARTA         CLOUDY    29  15  55 NW12G26   29.85R WCI  19
VIROQUA        CLOUDY    28  18  65 NW20G26   29.83R WCI  15
BOSCOBEL       CLOUDY    33  17  51 NW22G30   29.86R WCI  21
PRAIRIE DU CHI CLOUDY    31  15  50 NW22G30   29.89R WCI  18
PLATTEVILLE    PTSUNNY   33  20  58 W18G30    29.82R WCI  22
$$

WIZ056-057-062-063-064-067-068-211600-
SOUTH CENTRAL WISCONSIN

CITY           SKY/WX    TMP DP  RH WIND       PRES   REMARKS
REEDSBURG      CLOUDY    32  18  56 NW20G26   29.79R WCI  20
BARABOO/DELLS  CLOUDY    32  17  53 NW17G35   29.77R WCI  21
LONE ROCK      PTSUNNY   34  18  52 W23G36    29.81R WCI  22
MINERAL POINT  CLOUDY    34  18  51 NW22G30   29.79R WCI  22
MADISON        CLOUDY    38  14  37 NW20G39   29.74R WCI  28
MIDDLETON      CLOUDY    39  15  36 NW20G28   29.76R WCI  29
WATERTOWN      CLOUDY    39  15  37 NW17G25   29.71R WCI  30
MONROE         CLOUDY    36  12  38 W25G35    29.76R WCI  23
JANESVILLE     CLOUDY    43  19  39 W15G22    29.74R
$$

WIZ051-052-058>065-066-070>072-211600-
SOUTHEAST WISCONSIN

CITY           SKY/WX    TMP DP  RH WIND       PRES   REMARKS
MILWAUKEE      PTSUNNY   46  27  47 W12       29.69R
WAUKESHA       CLOUDY    41  19  42 W17G29    29.70R
MILWAUKEE/TIMM CLOUDY    45  19  36 W20G25    29.68R
RACINE         CLOUDY    45  30  55 W14G24    29.70R
BURLINGTON     CLOUDY    45  31  58 W8G18     29.72R
KENOSHA        CLOUDY    44  31  60 W14       29.70R
FOND DU LAC    CLOUDY    37  18  46 NW24      29.70R WCI  26
SHEBOYGAN      CLOUDY    41  21  44 NW16G35   29.67R
WEST BEND      PTSUNNY   39  16  38 W17G25    29.68R WCI  30
JUNEAU         CLOUDY    37  18  46 W12G25    29.72R WCI  29
$$

LSZ147-162-211600-
LAKE SUPERIOR

STATION/POSITION TIME  TEMP    WIND        PRES    WAVE
                       AIR SEA DIR/SP/G            HT/PER
                 (UTC) (F)     (DEG/KT/KT) (MB)    (FT/S)
DEVILS ISLAND    1500   24     310/ 26/ 31 1010.2R
SAXON HARBOR     1451   26     300/ 18/ 25 1007.8R
$$

LMZ867-665-643>646-211600-
LAKE MICHIGAN

STATION/POSITION TIME  TEMP    WIND        PRES    WAVE
                       AIR SEA DIR/SP/G            HT/PER
                 (UTC) (F)     (DEG/KT/KT) (MB)    (FT/S)
N MID LAKE BUOY  1450   40 47  280/ 23/ 29 1001.3R   8/ 5
NORTHPORT PIER   1441   38     290/ 13     1001.4R
KEWAUNEE LAKESHO 1500   38     280/ 11/ 18 1003.0
SHEBOYGAN LAKESH 1500   40     300/ 23/ 29 1005.1R
PORT WASHINGTON  1430   44     290/ 11/ 17 1005.4R
MILWAUKEE LAKESH 1500   45     290/ 18/ 22   N/A
S MID LAKE BUOY  1450   46 48  280/ 21/ 25 1005.6R   6/ 6
KENOSHA   LAKESH 1500   45     260/ 14/ 18 1006.1
$$

TC  - TEMPERATURE IN CELSIUS
VSB - VISIBILITY IN STATUTE MILES
WCI - WIND CHILL INDEX
HX  - HEAT INDEX





USA.gov is the U.S. government's official web portal to all federal, state and local government web resources and services.